Simultaneous Nadir Overpasses (SNOs) Predictions

Prediction of SNOs between GOES-15 and LANDSAT-8 Satellite Orbit:

Table of predicted SNOs for the next 14.0 days since TLE Epoch: 12/11/2021
Index Date Time (GOES-15) GOES-15 Lat,Lon LANDSAT-8 Lat,Lon Distance(km) Time Diff (sec)
1 12/11/2021 06:27:57 0.16,-127.88 0.90,-124.28 408.54 80
2 12/11/2021 18:51:53 -0.14,-127.89 0.17,-129.44 176.46 80
3 12/13/2021 18:37:01 -0.14,-127.82 -0.44,-126.48 152.50 80
4 12/14/2021 07:01:05 0.13,-127.78 -0.68,-131.67 442.13 80
5 12/15/2021 18:24:49 -0.14,-127.75 -1.04,-123.52 480.99 80
6 12/16/2021 06:48:53 0.13,-127.70 -0.07,-128.71 113.80 80
7 12/18/2021 06:34:01 0.13,-127.63 0.54,-125.75 213.93 80
8 12/18/2021 18:57:56 -0.12,-127.63 0.58,-130.90 371.74 80
9 12/20/2021 18:45:44 -0.11,-127.54 -0.03,-127.94 44.68 80
10 12/22/2021 18:30:52 -0.11,-127.45 -0.65,-124.98 281.98 80
11 12/23/2021 06:54:55 0.10,-127.41 -0.52,-130.15 313.02 80
